Time,TemperatureF,DewpointF,PressureIn,WindDirection,WindDirectionDegrees,WindSpeedMPH,WindSpeedGustMPH,Humidity,HourlyPrecipIn,Conditions,Clouds,dailyrainin,SoftwareType,DateUTC
2013-04-23 00:21:00,30.0,23.0,30.36,South,182,0.0,0.0,76,0.00,,,0.00,,2013-04-23 08:21:00,
2013-04-23 00:52:00,29.0,22.0,30.35,South,182,0.0,0.0,76,0.00,,,0.00,,2013-04-23 08:52:00,
2013-04-23 01:21:00,28.0,21.0,30.35,South,182,0.0,1.0,76,0.00,,,0.00,,2013-04-23 09:21:00,
2013-04-23 01:52:00,27.0,20.0,30.35,South,182,0.0,0.0,76,0.00,,,0.00,,2013-04-23 09:52:00,
2013-04-23 02:02:00,27.0,20.0,30.35,South,182,0.0,0.0,76,0.00,,,0.00,,2013-04-23 10:02:00,
2013-04-23 02:22:00,27.0,20.0,30.35,South,182,0.0,0.0,75,0.00,,,0.00,,2013-04-23 10:22:00,
2013-04-23 02:32:00,27.0,20.0,30.35,South,182,0.0,0.0,75,0.00,,,0.00,,2013-04-23 10:32:00,
2013-04-23 02:42:00,27.0,20.0,30.35,South,182,0.0,0.0,75,0.00,,,0.00,,2013-04-23 10:42:00,
2013-04-23 02:52:00,26.0,20.0,30.35,South,182,0.0,0.0,77,0.00,,,0.00,,2013-04-23 10:52:00,
2013-04-23 03:02:00,26.0,20.0,30.35,South,182,0.0,0.0,77,0.00,,,0.00,,2013-04-23 11:02:00,
2013-04-23 03:12:00,26.0,20.0,30.35,South,182,0.0,0.0,77,0.00,,,0.00,,2013-04-23 11:12:00,
2013-04-23 03:21:00,26.0,19.0,30.34,South,182,0.0,0.0,76,0.00,,,0.00,,2013-04-23 11:21:00,
2013-04-23 03:32:00,26.0,19.0,30.34,South,182,0.0,0.0,76,0.00,,,0.00,,2013-04-23 11:32:00,
2013-04-23 03:42:00,26.0,19.0,30.34,South,182,0.0,0.0,76,0.00,,,0.00,,2013-04-23 11:42:00,
2013-04-23 03:52:00,25.0,19.0,30.34,South,182,0.0,0.0,78,0.00,,,0.00,,2013-04-23 11:52:00,
2013-04-23 04:02:00,25.0,19.0,30.34,South,182,0.0,0.0,78,0.00,,,0.00,,2013-04-23 12:02:00,
2013-04-23 04:12:00,25.0,19.0,30.34,South,182,0.0,0.0,78,0.00,,,0.00,,2013-04-23 12:12:00,
2013-04-23 04:22:00,24.0,16.0,30.33,South,182,0.0,0.0,71,0.00,,,0.00,,2013-04-23 12:22:00,
2013-04-23 04:32:00,24.0,16.0,30.33,South,182,0.0,0.0,71,0.00,,,0.00,,2013-04-23 12:32:00,
2013-04-23 04:41:00,24.0,16.0,30.33,South,182,0.0,0.0,71,0.00,,,0.00,,2013-04-23 12:41:00,
2013-04-23 04:51:00,24.0,17.0,30.33,South,182,0.0,0.0,75,0.00,,,0.00,,2013-04-23 12:51:00,
2013-04-23 05:01:00,24.0,17.0,30.33,South,182,0.0,0.0,75,0.00,,,0.00,,2013-04-23 13:01:00,
2013-04-23 05:11:00,24.0,17.0,30.33,South,182,0.0,0.0,75,0.00,,,0.00,,2013-04-23 13:11:00,
2013-04-23 05:21:00,23.0,17.0,30.33,South,182,0.0,0.0,78,0.00,,,0.00,,2013-04-23 13:21:00,
2013-04-23 05:32:00,23.0,17.0,30.33,South,182,0.0,0.0,78,0.00,,,0.00,,2013-04-23 13:32:00,
2013-04-23 05:41:00,23.0,17.0,30.33,South,182,0.0,0.0,78,0.00,,,0.00,,2013-04-23 13:41:00,
2013-04-23 05:52:00,23.0,17.0,30.32,South,182,0.0,0.0,79,0.00,,,0.00,,2013-04-23 13:52:00,
2013-04-23 06:01:00,23.0,17.0,30.32,South,182,0.0,0.0,79,0.00,,,0.00,,2013-04-23 14:01:00,
2013-04-23 06:11:00,23.0,17.0,30.32,South,182,0.0,0.0,79,0.00,,,0.00,,2013-04-23 14:11:00,
2013-04-23 06:22:00,23.0,17.0,30.33,South,182,0.0,0.0,78,0.00,,,0.00,,2013-04-23 14:22:00,
2013-04-23 06:32:00,23.0,17.0,30.33,South,182,0.0,0.0,78,0.00,,,0.00,,2013-04-23 14:32:00,
2013-04-23 06:42:00,23.0,17.0,30.33,South,182,0.0,0.0,78,0.00,,,0.00,,2013-04-23 14:42:00,
2013-04-23 06:52:00,23.0,18.0,30.32,South,182,0.0,0.0,80,0.00,,,0.00,,2013-04-23 14:52:00,
2013-04-23 07:01:00,23.0,18.0,30.32,South,182,0.0,0.0,80,0.00,,,0.00,,2013-04-23 15:01:00,
2013-04-23 07:12:00,23.0,18.0,30.32,South,182,0.0,0.0,80,0.00,,,0.00,,2013-04-23 15:12:00,
2013-04-23 07:21:00,23.0,18.0,30.32,South,182,0.0,0.0,80,0.00,,,0.00,,2013-04-23 15:21:00,
2013-04-23 07:32:00,23.0,18.0,30.32,South,182,0.0,0.0,80,0.00,,,0.00,,2013-04-23 15:32:00,
2013-04-23 07:42:00,23.0,18.0,30.32,South,182,0.0,0.0,80,0.00,,,0.00,,2013-04-23 15:42:00,
2013-04-23 07:52:00,25.0,19.0,30.32,South,182,0.0,0.0,77,0.00,,,0.00,,2013-04-23 15:52:00,
2013-04-23 08:02:00,25.0,19.0,30.32,South,182,0.0,0.0,77,0.00,,,0.00,,2013-04-23 16:02:00,
2013-04-23 08:12:00,25.0,19.0,30.32,South,182,0.0,0.0,77,0.00,,,0.00,,2013-04-23 16:12:00,
2013-04-23 08:23:00,27.0,20.0,30.32,South,182,0.0,0.0,73,0.00,,,0.00,,2013-04-23 16:23:00,
2013-04-23 08:33:00,27.0,20.0,30.32,South,182,0.0,0.0,73,0.00,,,0.00,,2013-04-23 16:33:00,
2013-04-23 08:42:00,27.0,20.0,30.32,South,182,0.0,0.0,73,0.00,,,0.00,,2013-04-23 16:42:00,
2013-04-23 08:52:00,28.0,18.0,30.32,South,182,0.0,2.0,67,0.00,,,0.00,,2013-04-23 16:52:00,
2013-04-23 09:02:00,28.0,18.0,30.32,South,182,0.0,2.0,67,0.00,,,0.00,,2013-04-23 17:02:00,
2013-04-23 09:11:00,28.0,18.0,30.32,South,182,0.0,2.0,67,0.00,,,0.00,,2013-04-23 17:11:00,
2013-04-23 09:22:00,30.0,19.0,30.32,South,182,0.0,3.0,63,0.00,,,0.00,,2013-04-23 17:22:00,
2013-04-23 09:32:00,30.0,19.0,30.32,South,182,0.0,3.0,63,0.00,,,0.00,,2013-04-23 17:32:00,
2013-04-23 09:42:00,30.0,19.0,30.32,South,182,0.0,3.0,63,0.00,,,0.00,,2013-04-23 17:42:00,
2013-04-23 09:53:00,33.0,19.0,30.32,West,267,1.0,4.0,56,0.00,,,0.00,,2013-04-23 17:53:00,
2013-04-23 10:02:00,33.0,19.0,30.32,West,267,1.0,4.0,56,0.00,,,0.00,,2013-04-23 18:02:00,
2013-04-23 10:12:00,33.0,19.0,30.32,West,267,1.0,4.0,56,0.00,,,0.00,,2013-04-23 18:12:00,
2013-04-23 10:22:00,35.0,20.0,30.32,West,267,0.0,3.0,54,0.00,,,0.00,,2013-04-23 18:22:00,
2013-04-23 10:32:00,35.0,20.0,30.32,West,267,0.0,3.0,54,0.00,,,0.00,,2013-04-23 18:32:00,
2013-04-23 10:42:00,35.0,20.0,30.32,West,267,0.0,3.0,54,0.00,,,0.00,,2013-04-23 18:42:00,
2013-04-23 10:52:00,37.0,19.0,30.31,SSE,165,1.0,5.0,47,0.00,,,0.00,,2013-04-23 18:52:00,
2013-04-23 11:02:00,37.0,19.0,30.31,SSE,165,1.0,5.0,47,0.00,,,0.00,,2013-04-23 19:02:00,
2013-04-23 11:11:00,37.0,19.0,30.31,SSE,165,1.0,5.0,47,0.00,,,0.00,,2013-04-23 19:11:00,
2013-04-23 11:21:00,38.0,22.0,30.30,South,178,0.0,3.0,51,0.00,,,0.00,,2013-04-23 19:21:00,
2013-04-23 11:32:00,38.0,22.0,30.30,South,178,0.0,3.0,51,0.00,,,0.00,,2013-04-23 19:32:00,
2013-04-23 11:42:00,38.0,22.0,30.30,South,178,0.0,3.0,51,0.00,,,0.00,,2013-04-23 19:42:00,
2013-04-23 11:52:00,40.0,20.0,30.28,ESE,115,1.0,4.0,45,0.00,,,0.00,,2013-04-23 19:52:00,
2013-04-23 12:01:00,40.0,20.0,30.28,ESE,115,1.0,4.0,45,0.00,,,0.00,,2013-04-23 20:01:00,
2013-04-23 12:11:00,40.0,20.0,30.28,ESE,115,1.0,4.0,45,0.00,,,0.00,,2013-04-23 20:11:00,
2013-04-23 12:21:00,41.0,20.0,30.28,WSW,237,2.0,5.0,42,0.00,,,0.00,,2013-04-23 20:21:00,
2013-04-23 12:31:00,41.0,20.0,30.28,WSW,237,2.0,5.0,42,0.00,,,0.00,,2013-04-23 20:31:00,
2013-04-23 12:42:00,41.0,20.0,30.28,WSW,237,2.0,5.0,42,0.00,,,0.00,,2013-04-23 20:42:00,
2013-04-23 12:51:00,41.0,20.0,30.27,South,178,1.0,5.0,43,0.00,,,0.00,,2013-04-23 20:51:00,
2013-04-23 13:01:00,41.0,20.0,30.27,South,178,1.0,5.0,43,0.00,,,0.00,,2013-04-23 21:01:00,
2013-04-23 13:11:00,41.0,20.0,30.27,South,178,1.0,5.0,43,0.00,,,0.00,,2013-04-23 21:11:00,
2013-04-23 13:21:00,43.0,21.0,30.26,South,182,1.0,4.0,41,0.00,,,0.00,,2013-04-23 21:21:00,
2013-04-23 13:32:00,43.0,21.0,30.26,South,182,1.0,4.0,41,0.00,,,0.00,,2013-04-23 21:32:00,
2013-04-23 13:43:00,43.0,21.0,30.26,South,182,1.0,4.0,41,0.00,,,0.00,,2013-04-23 21:43:00,
2013-04-23 13:52:00,44.0,21.0,30.26,SW,232,3.0,7.0,40,0.00,,,0.00,,2013-04-23 21:52:00,
2013-04-23 14:03:00,44.0,21.0,30.26,SW,232,3.0,7.0,40,0.00,,,0.00,,2013-04-23 22:03:00,
2013-04-23 14:12:00,44.0,21.0,30.26,SW,232,3.0,7.0,40,0.00,,,0.00,,2013-04-23 22:12:00,
2013-04-23 14:22:00,46.0,22.0,30.24,South,190,3.0,8.0,38,0.00,,,0.00,,2013-04-23 22:22:00,
2013-04-23 14:33:00,46.0,22.0,30.24,South,190,3.0,8.0,38,0.00,,,0.00,,2013-04-23 22:33:00,
2013-04-23 14:42:00,46.0,22.0,30.24,South,190,3.0,8.0,38,0.00,,,0.00,,2013-04-23 22:42:00,
2013-04-23 14:52:00,47.0,23.0,30.23,South,190,2.0,9.0,38,0.00,,,0.00,,2013-04-23 22:52:00,
2013-04-23 15:02:00,47.0,23.0,30.23,South,190,2.0,9.0,38,0.00,,,0.00,,2013-04-23 23:02:00,
2013-04-23 15:12:00,47.0,23.0,30.23,South,190,2.0,9.0,38,0.00,,,0.00,,2013-04-23 23:12:00,
2013-04-23 15:22:00,48.0,20.0,30.24,West,280,5.0,12.0,33,0.00,,,0.00,,2013-04-23 23:22:00,
2013-04-23 15:32:00,48.0,20.0,30.24,West,280,5.0,12.0,33,0.00,,,0.00,,2013-04-23 23:32:00,
2013-04-23 15:42:00,48.0,20.0,30.24,West,280,5.0,12.0,33,0.00,,,0.00,,2013-04-23 23:42:00,
2013-04-23 15:52:00,48.0,21.0,30.23,WNW,290,4.0,9.0,34,0.00,,,0.00,,2013-04-23 23:52:00,
2013-04-23 16:01:00,48.0,21.0,30.23,WNW,290,4.0,9.0,34,0.00,,,0.00,,2013-04-24 00:01:00,
2013-04-23 16:11:00,48.0,21.0,30.23,WNW,290,4.0,9.0,34,0.00,,,0.00,,2013-04-24 00:11:00,
2013-04-23 16:21:00,48.0,20.0,30.22,WSW,250,3.0,7.0,32,0.00,,,0.00,,2013-04-24 00:21:00,
2013-04-23 16:32:00,48.0,20.0,30.22,WSW,250,3.0,7.0,32,0.00,,,0.00,,2013-04-24 00:32:00,
2013-04-23 16:41:00,48.0,20.0,30.22,WSW,250,3.0,7.0,32,0.00,,,0.00,,2013-04-24 00:41:00,
2013-04-23 16:51:00,48.0,20.0,30.22,WNW,283,3.0,11.0,32,0.00,,,0.00,,2013-04-24 00:51:00,
2013-04-23 17:01:00,48.0,20.0,30.22,WNW,283,3.0,11.0,32,0.00,,,0.00,,2013-04-24 01:01:00,
2013-04-23 17:11:00,48.0,20.0,30.22,WNW,283,3.0,11.0,32,0.00,,,0.00,,2013-04-24 01:11:00,
2013-04-23 17:21:00,47.0,19.0,30.21,West,269,5.0,9.0,33,0.00,,,0.00,,2013-04-24 01:21:00,
2013-04-23 17:32:00,47.0,19.0,30.21,West,269,5.0,9.0,33,0.00,,,0.00,,2013-04-24 01:32:00,
2013-04-23 17:42:00,47.0,19.0,30.21,West,269,5.0,9.0,33,0.00,,,0.00,,2013-04-24 01:42:00,
2013-04-23 17:52:00,47.0,19.0,30.20,West,269,4.0,8.0,32,0.00,,,0.00,,2013-04-24 01:52:00,
2013-04-23 18:02:00,47.0,19.0,30.20,West,269,4.0,8.0,32,0.00,,,0.00,,2013-04-24 02:02:00,
2013-04-23 18:13:00,47.0,19.0,30.20,West,269,4.0,8.0,32,0.00,,,0.00,,2013-04-24 02:13:00,
2013-04-23 18:36:00,46.0,19.0,30.19,West,269,3.0,8.0,34,0.00,,,0.00,,2013-04-24 02:36:00,
2013-04-23 18:46:00,46.0,19.0,30.19,West,269,3.0,8.0,34,0.00,,,0.00,,2013-04-24 02:46:00,
2013-04-23 18:53:00,46.0,19.0,30.19,West,260,3.0,10.0,34,0.00,,,0.00,,2013-04-24 02:53:00,
2013-04-23 19:05:00,46.0,19.0,30.19,West,260,3.0,10.0,34,0.00,,,0.00,,2013-04-24 03:05:00,
2013-04-23 19:14:00,46.0,19.0,30.19,West,260,3.0,10.0,34,0.00,,,0.00,,2013-04-24 03:14:00,
2013-04-23 19:37:00,46.0,19.0,30.19,WNW,283,4.0,7.0,34,0.00,,,0.00,,2013-04-24 03:37:00,
2013-04-23 19:53:00,45.0,18.0,30.19,West,273,5.0,9.0,33,0.00,,,0.00,,2013-04-24 03:53:00,
2013-04-23 20:03:00,45.0,18.0,30.19,West,273,5.0,9.0,33,0.00,,,0.00,,2013-04-24 04:03:00,
2013-04-23 20:12:00,45.0,18.0,30.19,West,273,5.0,9.0,33,0.00,,,0.00,,2013-04-24 04:12:00,
2013-04-23 20:22:00,44.0,19.0,30.18,West,271,4.0,7.0,36,0.00,,,0.00,,2013-04-24 04:22:00,
2013-04-23 20:33:00,44.0,19.0,30.18,West,271,4.0,7.0,36,0.00,,,0.00,,2013-04-24 04:33:00,
2013-04-23 20:43:00,44.0,19.0,30.18,West,271,4.0,7.0,36,0.00,,,0.00,,2013-04-24 04:43:00,
2013-04-23 20:52:00,44.0,19.0,30.18,WNW,283,2.0,5.0,37,0.00,,,0.00,,2013-04-24 04:52:00,
2013-04-23 21:02:00,44.0,19.0,30.18,WNW,283,2.0,5.0,37,0.00,,,0.00,,2013-04-24 05:02:00,
2013-04-23 21:12:00,44.0,19.0,30.18,WNW,283,2.0,5.0,37,0.00,,,0.00,,2013-04-24 05:12:00,
2013-04-23 21:21:00,43.0,17.0,30.17,West,277,2.0,4.0,35,0.00,,,0.00,,2013-04-24 05:21:00,
2013-04-23 21:32:00,43.0,17.0,30.17,West,277,2.0,4.0,35,0.00,,,0.00,,2013-04-24 05:32:00,
2013-04-23 21:42:00,43.0,17.0,30.17,West,277,2.0,4.0,35,0.00,,,0.00,,2013-04-24 05:42:00,
2013-04-23 21:51:00,42.0,19.0,30.16,West,271,1.0,4.0,40,0.00,,,0.00,,2013-04-24 05:51:00,
2013-04-23 22:02:00,42.0,19.0,30.16,West,271,1.0,4.0,40,0.00,,,0.00,,2013-04-24 06:02:00,
2013-04-23 22:11:00,42.0,19.0,30.16,West,271,1.0,4.0,40,0.00,,,0.00,,2013-04-24 06:11:00,
2013-04-23 22:21:00,42.0,18.0,30.16,West,270,1.0,4.0,37,0.00,,,0.00,,2013-04-24 06:21:00,
2013-04-23 22:32:00,42.0,18.0,30.16,West,270,1.0,4.0,37,0.00,,,0.00,,2013-04-24 06:32:00,
2013-04-23 22:42:00,42.0,18.0,30.16,West,270,1.0,4.0,37,0.00,,,0.00,,2013-04-24 06:42:00,
2013-04-23 22:51:00,40.0,19.0,30.15,West,270,1.0,2.0,43,0.00,,,0.00,,2013-04-24 06:51:00,
2013-04-23 23:02:00,40.0,19.0,30.15,West,270,1.0,2.0,43,0.00,,,0.00,,2013-04-24 07:02:00,
2013-04-23 23:11:00,40.0,19.0,30.15,West,270,1.0,2.0,43,0.00,,,0.00,,2013-04-24 07:11:00,
2013-04-23 23:21:00,39.0,23.0,30.15,West,269,0.0,2.0,53,0.00,,,0.00,,2013-04-24 07:21:00,
2013-04-23 23:32:00,39.0,23.0,30.15,West,269,0.0,2.0,53,0.00,,,0.00,,2013-04-24 07:32:00,
2013-04-23 23:52:00,38.0,22.0,30.14,West,269,0.0,1.0,53,0.00,,,0.00,,2013-04-24 07:52:00,